| time (UTC) | temp C | wind direction | speed KPH | gust KPH | rain 1hr cm | rain 24hr cm | rain mn cm | humidity % | barometer mb |
| 20260510204606 | 15 | 213 | 0.0 | 8.0 | 0.00 | 0.48 | 0.48 | 64 | 1010.7 |
| 20260510203058 | 14 | 265 | 0.0 | 6.4 | 0.00 | 0.48 | 0.48 | 75 | 1010.4 |
| 20260510201556 | 14 | 284 | 0.0 | 0.0 | 0.00 | 0.48 | 0.48 | 77 | 1010.4 |
| 20260510200055 | 15 | 252 | 0.0 | 11.3 | 0.00 | 0.48 | 0.48 | 79 | 1010.5 |
| 20260510194558 | 13 | 277 | 0.0 | 3.2 | 0.00 | 0.48 | 0.48 | 85 | 1010.5 |
| 20260510193054 | 15 | 259 | 1.6 | 17.7 | 0.00 | 0.48 | 0.48 | 86 | 1010.6 |
| 20260510191554 | 14 | 227 | 0.0 | 0.0 | 0.03 | 0.48 | 0.48 | 92 | 1010.4 |
| 20260510190051 | 13 | 281 | 0.0 | 6.4 | 0.23 | 0.48 | 0.48 | 95 | 1010.8 |
| 20260510184542 | 12 | 248 | 0.0 | 0.0 | 0.36 | 0.48 | 0.48 | 96 | 1010.9 |
| 20260510183043 | 11 | 243 | 0.0 | 0.0 | 0.36 | 0.48 | 0.48 | 96 | 1011.0 |
| 20260510181539 | 10 | 221 | 0.0 | 0.0 | 0.33 | 0.46 | 0.46 | 95 | 1011.0 |
| 20260510180138 | 10 | 261 | 0.0 | 1.6 | 0.15 | 0.28 | 0.28 | 92 | 1011.0 |
| 20260510174538 | 11 | 275 | 0.0 | 3.2 | 0.00 | 0.13 | 0.13 | 89 | 1010.9 |
| 20260510173042 | 11 | 246 | 0.0 | 11.3 | 0.00 | 0.13 | 0.13 | 88 | 1010.8 |
| 20260510171536 | 11 | 209 | 0.0 | 9.7 | 0.00 | 0.13 | 0.13 | 91 | 1010.7 |
| 20260510170037 | 11 | 191 | 0.0 | 6.4 | 0.00 | 0.13 | 0.13 | 93 | 1010.7 |
| 20260510164538 | 11 | 252 | 0.0 | 0.0 | 0.08 | 0.13 | 0.13 | 94 | 1010.7 |
| 20260510163033 | 11 | 225 | 0.0 | 8.0 | 0.08 | 0.13 | 0.13 | 93 | 1010.8 |
| 20260510161532 | 11 | 228 | 0.0 | 0.0 | 0.08 | 0.13 | 0.13 | 94 | 1010.8 |
| 20260510160031 | 11 | 105 | 0.0 | 9.7 | 0.08 | 0.13 | 0.13 | 93 | 1010.7 |
| 20260510154534 | 11 | 240 | 0.0 | 0.0 | 0.00 | 0.05 | 0.05 | 88 | 1011.0 |
| 20260510153029 | 11 | 219 | 0.0 | 3.2 | 0.00 | 0.05 | 0.05 | 88 | 1010.8 |
| 20260510151533 | 11 | 230 | 0.0 | 0.0 | 0.00 | 0.05 | 0.05 | 90 | 1010.7 |
| 20260510150027 | 11 | 219 | 0.0 | 0.0 | 0.00 | 0.05 | 0.05 | 88 | 1010.8 |
| 20260510144535 | 11 | 224 | 0.0 | 0.0 | 0.00 | 0.05 | 0.05 | 87 | 1010.7 |
| 20260510143026 | 11 | 216 | 0.0 | 0.0 | 0.00 | 0.05 | 0.05 | 87 | 1010.8 |
| 20260510141524 | 11 | 235 | 0.0 | 6.4 | 0.00 | 0.05 | 0.05 | 85 | 1011.0 |
| 20260510140020 | 11 | 225 | 0.0 | 1.6 | 0.00 | 0.05 | 0.05 | 86 | 1010.7 |
| 20260510134635 | 11 | 68 | 0.0 | 0.0 | 0.00 | 0.05 | 0.05 | 89 | 1010.4 |
| 20260510133020 | 11 | 214 | 0.0 | 3.2 | 0.00 | 0.05 | 0.05 | 92 | 1010.8 |
| 20260510131517 | 10 | 235 | 0.0 | 4.8 | 0.00 | 0.05 | 0.05 | 93 | 1010.8 |
| 20260510130014 | 10 | 133 | 0.0 | 0.0 | 0.00 | 0.05 | 0.05 | 94 | 1010.7 |
| 20260510124504 | 9 | 157 | 0.0 | 0.0 | 0.00 | 0.05 | 0.05 | 94 | 1010.5 |
| 20260510123102 | 8 | 160 | 0.0 | 0.0 | 0.00 | 0.05 | 0.05 | 95 | 1010.6 |
| 20260510121558 | 8 | 163 | 0.0 | 0.0 | 0.00 | 0.05 | 0.05 | 96 | 1010.8 |
| 20260510120054 | 8 | 76 | 0.0 | 0.0 | 0.00 | 0.05 | 0.05 | 96 | 1011.0 |
| 20260510114553 | 8 | 80 | 0.0 | 0.0 | 0.00 | 0.05 | 0.05 | 96 | 1010.5 |
| 20260510113049 | 8 | 80 | 0.0 | 0.0 | 0.00 | 0.05 | 0.05 | 96 | 1010.4 |
| 20260510111555 | 7 | 355 | 0.0 | 0.0 | 0.00 | 0.05 | 0.05 | 96 | 1010.2 |
| 20260510110046 | 7 | 332 | 0.0 | 0.0 | 0.00 | 0.05 | 0.05 | 96 | 1010.4 |
| 20260510104604 | 7 | 269 | 0.0 | 0.0 | 0.00 | 0.05 | 0.05 | 96 | 1010.2 |
| 20260510103044 | 7 | 269 | 0.0 | 0.0 | 0.00 | 0.05 | 0.05 | 96 | 1010.1 |
| 20260510101543 | 7 | 269 | 0.0 | 0.0 | 0.03 | 0.05 | 0.05 | 96 | 1009.8 |
| 20260510100041 | 7 | 269 | 0.0 | 0.0 | 0.05 | 0.05 | 0.05 | 95 | 1009.7 |
| 20260510094543 | 7 | 269 | 0.0 | 0.0 | 0.05 | 0.05 | 0.05 | 95 | 1009.6 |
| 20260510093039 | 7 | 269 | 0.0 | 0.0 | 0.05 | 0.05 | 0.05 | 94 | 1009.4 |
| 20260510091539 | 7 | 269 | 0.0 | 0.0 | 0.00 | 0.00 | 0.00 | 94 | 1009.4 |
| 20260510090036 | 7 | 269 | 0.0 | 0.0 | 0.00 | 0.00 | 0.00 | 92 | 1009.6 |
| 20260510084535 | 7 | 269 | 0.0 | 0.0 | 0.00 | 0.00 | 0.00 | 92 | 1009.7 |
| 20260510083135 | 7 | 269 | 0.0 | 0.0 | 0.00 | 0.00 | 0.00 | 91 | 1010.0 |
| 20260510081536 | 7 | 269 | 0.0 | 0.0 | 0.00 | 0.00 | 0.00 | 91 | 1009.6 |
| 20260510080034 | 7 | 269 | 0.0 | 0.0 | 0.00 | 0.00 | 0.00 | 91 | 1009.8 |
| 20260510074534 | 7 | 269 | 0.0 | 0.0 | 0.00 | 0.00 | 0.00 | 90 | 1010.0 |
| 20260510073029 | 7 | 213 | 0.0 | 0.0 | 0.00 | 0.00 | 0.00 | 90 | 1010.2 |
| 20260510071528 | 7 | 167 | 0.0 | 0.0 | 0.00 | 0.00 | 0.00 | 90 | 1010.2 |
| 20260510070026 | 7 | 263 | 0.0 | 0.0 | 0.00 | 0.00 | 0.00 | 89 | 1010.2 |
| 20260510064526 | 7 | 156 | 0.0 | 0.0 | 0.00 | 0.00 | 0.00 | 89 | 1010.2 |
| 20260510063021 | 7 | 146 | 0.0 | 0.0 | 0.00 | 0.00 | 0.00 | 89 | 1010.2 |
| 20260510061528 | 7 | 188 | 0.0 | 0.0 | 0.00 | 0.00 | 0.00 | 89 | 1010.3 |
| 20260510060040 | 7 | 98 | 0.0 | 0.0 | 0.00 | 0.00 | 0.00 | 89 | 1010.3 |
| 20260510054518 | 7 | 83 | 0.0 | 0.0 | 0.00 | 0.00 | 0.00 | 88 | 1010.2 |
| 20260510053016 | 7 | 82 | 0.0 | 0.0 | 0.00 | 0.00 | 0.00 | 88 | 1010.4 |
| 20260510051516 | 7 | 82 | 0.0 | 0.0 | 0.00 | 0.00 | 0.00 | 87 | 1010.5 |
| 20260510050015 | 7 | 82 | 0.0 | 0.0 | 0.00 | 0.00 | 0.00 | 87 | 1010.4 |
| 20260510044517 | 7 | 84 | 0.0 | 0.0 | 0.00 | 0.00 | 0.00 | 87 | 1010.2 |
| 20260510043012 | 7 | 252 | 0.0 | 0.0 | 0.00 | 0.00 | 0.00 | 86 | 1010.7 |
| 20260510041515 | 7 | 211 | 0.0 | 0.0 | 0.00 | 0.00 | 0.00 | 86 | 1010.7 |
| 20260510040008 | 7 | 200 | 0.0 | 0.0 | 0.00 | 0.00 | 0.00 | 85 | 1010.5 |
| 20260510034507 | 7 | 250 | 0.0 | 0.0 | 0.00 | 0.00 | 0.00 | 86 | 1010.7 |
| 20260510033006 | 7 | 360 | 0.0 | 0.0 | 0.00 | 0.00 | 0.00 | 85 | 1010.7 |
| 20260510031506 | 7 | 199 | 0.0 | 0.0 | 0.00 | 0.00 | 0.00 | 84 | 1010.8 |
| 20260510030005 | 7 | 216 | 0.0 | 0.0 | 0.00 | 0.00 | 0.00 | 84 | 1011.0 |
| 20260510024504 | 7 | 94 | 0.0 | 3.2 | 0.00 | 0.00 | 0.00 | 84 | 1011.2 |
| 20260510023002 | 7 | 66 | 0.0 | 3.2 | 0.00 | 0.00 | 0.00 | 82 | 1011.0 |
| 20260510021502 | 7 | 27 | 0.0 | 0.0 | 0.00 | 0.00 | 0.00 | 83 | 1011.0 |
| 20260510020001 | 7 | 146 | 0.0 | 0.0 | 0.00 | 0.00 | 0.00 | 83 | 1011.1 |
| 20260510014600 | 7 | 301 | 0.0 | 0.0 | 0.00 | 0.00 | 0.00 | 83 | 1011.5 |
| 20260510013100 | 7 | 301 | 0.0 | 0.0 | 0.00 | 0.00 | 0.00 | 82 | 1011.6 |
| 20260510011625 | 7 | 213 | 0.0 | 3.2 | 0.00 | 0.00 | 0.00 | 82 | 1011.5 |
| 20260510010109 | 7 | 80 | 0.0 | 0.0 | 0.00 | 0.00 | 0.00 | 82 | 1011.5 |
| 20260510004559 | 7 | 79 | 0.0 | 0.0 | 0.00 | 0.00 | 0.00 | 82 | 1011.5 |
| 20260510003107 | 7 | 80 | 0.0 | 0.0 | 0.00 | 0.00 | 0.00 | 81 | 1011.3 |
| 20260510001557 | 7 | 82 | 0.0 | 0.0 | 0.00 | 0.00 | 0.00 | 80 | 1011.1 |
| 20260510000059 | 7 | 153 | 0.0 | 0.0 | 0.00 | 0.00 | 0.00 | 81 | 1011.1 |
| 20260509234606 | 7 | 153 | 0.0 | 0.0 | 0.00 | 0.00 | 0.00 | 80 | 1011.2 |
| 20260509233102 | 7 | 171 | 0.0 | 0.0 | 0.00 | 0.00 | 0.00 | 78 | 1011.2 |
| 20260509231603 | 7 | 42 | 0.0 | 0.0 | 0.00 | 0.00 | 0.00 | 78 | 1011.1 |
| 20260509230056 | 7 | 263 | 0.0 | 0.0 | 0.00 | 0.00 | 0.00 | 77 | 1011.1 |
| 20260509224602 | 7 | 143 | 0.0 | 1.6 | 0.00 | 0.00 | 0.00 | 77 | 1011.2 |
| 20260509223053 | 7 | 180 | 0.0 | 0.0 | 0.00 | 0.00 | 0.00 | 77 | 1011.4 |
| 20260509221552 | 7 | 162 | 0.0 | 3.2 | 0.00 | 0.00 | 0.00 | 77 | 1011.3 |
| 20260509220051 | 8 | 188 | 0.0 | 11.3 | 0.00 | 0.00 | 0.00 | 76 | 1011.5 |
| 20260509214548 | 8 | 178 | 0.0 | 3.2 | 0.00 | 0.00 | 0.00 | 76 | 1011.7 |
| 20260509213101 | 8 | 185 | 0.0 | 0.0 | 0.00 | 0.00 | 0.00 | 77 | 1011.8 |
| 20260509211610 | 8 | 191 | 0.0 | 0.0 | 0.00 | 0.00 | 0.00 | 77 | 1011.8 |
| 20260509210053 | 8 | 60 | 0.0 | 1.6 | 0.00 | 0.00 | 0.00 | 76 | 1011.8 |